Location: Eindhoven
(51.4416°N, 5.4697°E)
Time: 17:23:52
(UTC+01:00)

deb Explorer IX - Pass Details

Date: 18 November 2019
Orbit: 546 x 1104 km, 38.8° (Epoch: 11 December)

Event Time Altitude Azimuth Distance (km) Brightness Sun altitude
Rises 03:34:03 0° 237° (WSW) 3,518 - -40.7°
Reaches altitude 10° 03:37:23 10° 222° (SW) 2,465 - -40.2°
Maximum altitude 03:41:32 20° 176° (S) 1,710 - -39.6°
Drops below altitude 10° 03:45:16 10° 129° (SE) 2,187 - -39.1°
Exits shadow 03:46:07 - 123° (ESE) 2,417 ? -39.0°
Sets 03:48:02 0° 113° (ESE) 3,008 ? -38.7°
